QPF
0.00 0.00 0.00 0.00 0.00 0.00 0.00 0.00 0.00 0.00 0.00 0.00 0.00 0.00 0.00 0.00 0.00 0.00 0.00 0.00 0.00 0.00 0.00 0.00 0.00 0.00 0.00 0.00 0.00 0.00 0.00 0.00 0.00 0.00 0.00 0.00 0.00 0.00 0.00 0.00 0.00 0.00 0.00 0.00 0.00
0.00 0.00 0.00 0.00 0.00 0.00 0.00 0.00 0.00 0.00 0.00 0.00 0.00 0.00 0.00 0.00 0.00 0.00 0.00 0.00 0.00 0.00 0.00 0.00 0.00 0.00 0.00 0.00 0.00 0.00 0.00 0.00 0.00 0.00 0.00 0.00 0.00 0.00 0.00 0.00 0.00 0.00 0.00 0.00 0.00
0.00 0.00 0.00 0.00 0.00 0.00 0.00 0.00 0.00 0.00 0.00 0.00 0.00 0.00 0.00 0.00 0.00 0.00 0.00 0.00 0.00 0.00 0.00 0.00 0.00 0.00 0.00 0.00 0.00 0.00 0.00 0.00 0.00 0.00 0.00 0.00 0.00 0.00 0.00 0.00 0.00 0.00 0.00 0.00 0.00
0.00 0.00 0.00 0.00 0.00 0.00 0.00 0.00 0.00 0.00 0.00 0.00 0.00 0.00 0.00 0.00 0.00 0.00 0.00 0.00 0.00 0.00 0.00 0.00 0.00 0.00 0.00 0.00 0.00 0.00 0.00 0.00 0.00 0.00 0.00 0.00 0.00 0.00 0.00 0.00 0.00 0.00 0.00 0.00 0.00
0.00 0.00 0.00 0.00 0.00 0.00 0.00 0.00 0.00 0.00 0.00 0.00 0.00 0.00 0.00 0.00 0.00 0.00 0.00 0.00 0.00 0.00 0.00 0.00 0.00 0.00 0.00 0.00 0.00 0.00 0.00 0.00 0.00 0.00 0.00 0.00 0.00 0.00 0.00 0.00 0.00 0.00 0.00 0.00 0.00
0.00 0.00 0.00 0.00 0.00 0.00 0.00 0.00 0.00 0.00 0.00 0.00 0.00 0.00 0.00 0.00 0.00 0.00 0.00 0.00 0.00 0.00 0.00 0.00 0.00 0.00 0.00 0.00 0.00 0.00 0.00 0.00 0.00 0.00 0.00 0.00 0.00 0.00 0.00 0.00 0.00 0.00 0.00 0.00 0.00
0.00 0.00 0.00 0.00 0.00 0.00 0.00 0.00 0.00 0.00 0.00 0.00 0.00 0.00 0.00 0.00 0.00 0.00 0.00 0.00 0.00 0.00 0.00 0.00 0.00 0.00 0.00 0.00 0.00 0.00 0.00 0.00 0.00 0.00 0.00 0.00 0.00 0.00 0.00 0.00 0.00 0.00 0.00 0.00 0.00
0.00 0.00 0.00 0.00 0.00 0.00 0.00 0.00 0.00 0.00 0.00 0.00 0.00 0.00 0.00 0.00 0.00 0.00 0.00 0.00 0.00 0.00 0.00 0.00 0.00 0.00 0.00 0.00 0.00 0.00 0.00 0.00 0.00 0.00 0.00 0.00 0.00 0.00 0.00 0.00 0.00 0.00 0.00 0.00 0.00
0.00 0.00 0.00 0.00 0.00 0.00 0.00 0.00 0.00 0.00 0.00 0.00 0.00 0.00 0.00 0.00 0.00 0.00 0.00 0.00 0.00 0.00 0.00 0.00 0.00 0.00 0.00 0.00 0.00 0.00 0.00 0.00 0.00 0.00 0.00 0.00 0.00 0.00 0.00 0.00 0.00 0.00 0.00 0.00 0.00
0.00 0.00 0.00 0.00 0.00 0.00 0.00 0.00 0.00 0.00 0.00 0.00 0.00 0.00 0.00 0.00 0.00 0.00 0.00 0.00 0.00 0.00 0.00 0.00 0.00 0.00 0.00 0.00 0.00 0.00 0.00 0.00 0.00 0.00 0.00 0.00 0.00 0.00 0.00 0.00 0.00 0.00 0.00 0.00 0.00
0.00 0.00 0.00 0.00 0.00 0.00 0.00 0.00 0.00 0.00 0.00 0.00 0.00 0.00 0.00 0.00 0.00 0.00 0.00 0.00 0.00 0.00 0.00 0.00 0.00 0.00 0.00 0.00 0.00 0.00 0.00 0.00 0.00 0.00 0.00 0.00 0.00 0.00 0.00 0.00 0.00 0.00 0.00 0.00 0.00
0.00 0.00 0.00 0.00 0.00 0.00 0.00 0.00 0.00 0.00 0.00 0.00 0.00 0.00 0.00 0.00 0.00 0.00 0.00 0.00 0.00 0.00 0.00 0.00 0.00 0.00 0.00 0.00 0.00 0.00 0.00 0.00 0.00 0.00 0.00 0.00 0.00 0.00 0.00 0.00 0.00 0.00 0.00 0.00 0.00
0.00 0.00 0.00 0.00 0.00 0.00 0.00 0.00 0.00 0.00 0.00 0.00 0.00 0.00 0.00 0.00 0.00 0.00 0.00 0.00 0.00 0.00 0.00 0.00 0.00 0.00 0.00 0.00 0.00 0.00 0.00 0.00 0.00 0.00 0.00 0.00 0.00 0.00 0.00 0.00 0.00 0.00 0.00 0.00 0.00
0.00 0.00 0.00 0.00 0.00 0.00 0.00 0.00 0.00 0.00 0.00 0.00 0.00 0.00 0.00 0.00 0.00 0.00 0.00 0.00 0.00 0.00 0.00 0.00 0.00 0.00 0.00 0.00 0.00 0.00 0.00 0.00 0.00 0.00 0.00 0.00 0.00 0.00 0.00 0.00 0.00 0.00 0.00 0.00 0.00
0.00 0.00 0.00 0.00 0.00 0.00 0.00 0.00 0.00 0.00 0.00 0.00 0.00 0.00 0.00 0.00 0.00 0.00 0.00 0.00 0.00 0.00 0.00 0.00 0.00 0.00 0.00 0.00 0.00 0.00 0.00 0.00 0.00 0.00 0.00 0.00 0.00 0.00 0.00 0.00 0.00 0.00 0.00 0.00 0.00
0.00 0.00 0.00 0.00 0.00 0.00 0.00 0.00 0.00 0.00 0.00 0.00 0.00 0.00 0.00 0.00 0.00 0.00 0.00 0.00 0.00 0.00 0.00 0.00 0.00 0.00 0.00 0.00 0.00 0.00 0.00 0.00 0.00 0.00 0.00 0.00 0.00 0.00 0.00 0.00 0.00 0.00 0.00 0.00 0.00
0.00 0.00 0.00 0.00 0.00 0.00 0.00 0.00 0.00 0.00 0.00 0.00 0.00 0.00 0.00 0.00 0.00 0.00 0.00 0.00 0.00 0.00 0.00 0.00 0.00 0.00 0.00 0.00 0.00 0.00 0.00 0.00 0.00 0.00 0.00 0.00 0.00 0.00 0.00 0.00 0.00 0.00 0.00 0.00 0.00
0.00 0.00 0.00 0.00 0.00 0.00 0.00 0.00 0.00 0.00 0.00 0.00 0.00 0.00 0.00 0.00 0.00 0.00 0.00 0.00 0.00 0.00 0.00 0.00 0.00 0.00 0.00 0.00 0.00 0.00 0.00 0.00 0.00 0.00 0.00 0.00 0.00 0.00 0.00 0.00 0.00 0.00 0.00 0.00 0.00
0.00 0.00 0.00 0.00 0.00 0.00 0.00 0.00 0.00 0.00 0.00 0.00 0.00 0.00 0.00 0.00 0.00 0.00 0.00 0.00 0.00 0.00 0.00 0.00 0.00 0.00 0.00 0.00 0.00 0.00 0.00 0.00 0.00 0.00 0.00 0.00 0.00 0.00 0.00 0.00 0.00 0.00 0.00 0.00 0.00
0.00 0.00 0.00 0.00 0.00 0.00 0.00 0.00 0.00 0.00 0.00 0.00 0.00 0.00 0.00 0.00 0.00 0.00 0.00 0.00 0.00 0.00 0.00 0.00 0.00 0.00 0.00 0.00 0.00 0.00 0.00 0.00 0.00 0.00 0.00 0.00 0.00 0.00 0.00 0.00 0.00 0.00 0.00 0.00 0.00
0.00 0.00 0.00 0.00 0.00 0.00 0.00 0.00 0.00 0.00 0.00 0.00 0.00 0.00 0.00 0.00 0.00 0.00 0.00 0.00 0.00 0.00 0.00 0.00 0.00 0.00 0.00 0.00 0.00 0.00 0.00 0.00 0.00 0.00 0.00 0.00 0.00 0.00 0.00 0.00 0.00 0.00 0.00 0.00 0.00
0.00 0.00 0.00 0.00 0.00 0.00 0.00 0.00 0.00 0.00 0.00 0.00 0.00 0.00 0.00 0.00 0.00 0.00 0.00 0.00 0.00 0.00 0.00 0.00 0.00 0.00 0.00 0.00 0.00 0.00 0.00 0.00 0.01 0.00 0.00 0.01 0.00 0.00 0.00 0.00 0.00 0.00 0.00 0.00 0.00
0.00 0.00 0.00 0.00 0.00 0.00 0.00 0.00 0.00 0.00 0.00 0.00 0.00 0.00 0.00 0.00 0.00 0.00 0.00 0.00 0.00 0.00 0.00 0.00 0.00 0.00 0.00 0.00 0.00 0.00 0.00 0.00 0.00 0.00 0.00 0.02 0.00 0.00 0.00 0.00 0.00 0.00 0.00 0.00 0.00
0.00 0.00 0.00 0.00 0.00 0.00 0.00 0.00 0.00 0.00 0.00 0.00 0.00 0.00 0.00 0.00 0.00 0.00 0.00 0.00 0.00 0.00 0.00 0.00 0.00 0.00 0.00 0.00 0.00 0.00 0.00 0.00 0.00 0.00 0.00 0.00 0.00 0.00 0.00 0.00 0.00 0.00 0.00 0.00 0.00
0.00 0.00 0.00 0.00 0.00 0.00 0.00 0.00 0.00 0.00 0.00 0.00 0.00 0.00 0.00 0.00 0.00 0.00 0.00 0.00 0.00 0.00 0.00 0.00 0.00 0.00 0.00 0.00 0.00 0.00 0.00 0.00 0.00 0.00 0.00 0.00 0.00 0.00 0.00 0.00 0.00 0.00 0.00 0.00 0.00
0.00 0.00 0.00 0.00 0.00 0.00 0.00 0.00 0.00 0.00 0.00 0.00 0.00 0.00 0.00 0.00 0.00 0.00 0.00 0.00 0.00 0.00 0.00 0.00 0.00 0.00 0.00 0.00 0.00 0.00 0.00 0.00 0.00 0.00 0.00 0.00 0.00 0.00 0.00 0.00 0.00 0.00 0.00 0.00 0.00
0.00 0.00 0.00 0.00 0.00 0.00 0.00 0.00 0.00 0.00 0.00 0.00 0.00 0.00 0.00 0.00 0.00 0.00 0.00 0.00 0.00 0.00 0.00 0.00 0.00 0.00 0.00 0.00 0.00 0.00 0.00 0.00 0.00 0.00 0.00 0.00 0.00 0.00 0.00 0.00 0.00 0.00 0.00 0.00 0.00
MSLP
1023.31 1023.03 1022.98 1022.75 1022.52 1022.21 1022.01 1021.89 1021.69 1021.43 1021.15 1021.14 1020.99 1020.82 1020.79 1020.62 1019.99 1019.13 1019.31 1020.03 1019.50 1019.17 1018.95 1017.99 1017.39 1016.94 1016.37 1016.14 1016.03 1015.61 1014.35 1013.58 1014.03 1014.29 1014.08 1014.68 1014.71 1014.44 1014.48 1014.22 1013.75 1013.48 1013.32 1013.20 1013.29
1023.31 1023.24 1022.89 1022.70 1022.44 1022.45 1022.08 1021.86 1021.50 1021.22 1020.97 1020.87 1021.00 1020.88 1020.70 1020.57 1019.56 1019.55 1020.52 1020.03 1019.60 1019.19 1018.17 1017.73 1017.19 1016.96 1016.03 1016.29 1016.17 1015.52 1014.56 1014.55 1015.25 1015.19 1015.13 1015.09 1015.03 1014.97 1014.86 1014.15 1013.71 1013.45 1013.44 1013.36 1013.48
1023.11 1023.03 1022.99 1022.77 1022.63 1022.38 1022.03 1021.72 1021.59 1021.40 1021.13 1020.85 1020.79 1020.79 1020.63 1020.47 1019.50 1020.13 1020.59 1020.24 1019.70 1019.19 1018.60 1018.28 1017.73 1017.12 1016.48 1016.52 1016.51 1016.13 1015.11 1015.74 1015.58 1015.87 1016.10 1015.85 1015.51 1015.26 1014.94 1014.51 1014.36 1014.85 1014.60 1014.44 1014.12
1023.46 1023.11 1023.08 1022.77 1022.45 1022.21 1021.97 1021.78 1021.63 1021.45 1021.29 1021.04 1020.84 1020.71 1020.43 1019.64 1019.83 1020.22 1020.53 1020.46 1020.17 1019.28 1018.58 1018.38 1018.03 1017.28 1016.94 1016.81 1017.05 1016.59 1016.59 1016.49 1016.36 1016.63 1016.75 1016.32 1015.86 1015.60 1015.11 1014.79 1015.54 1015.34 1015.27 1015.03 1014.80
1023.39 1023.26 1023.04 1022.76 1022.51 1022.12 1021.95 1021.81 1021.55 1021.44 1021.12 1020.96 1020.99 1020.99 1020.43 1019.38 1019.94 1020.08 1020.40 1020.22 1019.78 1019.41 1018.90 1018.35 1018.34 1017.86 1017.19 1017.27 1017.29 1016.95 1016.42 1016.75 1016.82 1016.91 1016.90 1016.72 1016.29 1015.86 1015.27 1015.27 1015.91 1015.61 1015.67 1015.62 1015.81
1023.60 1023.18 1023.03 1022.64 1022.38 1022.28 1021.99 1021.75 1021.56 1021.29 1021.09 1020.96 1021.05 1021.05 1020.25 1019.65 1020.62 1020.27 1020.31 1020.23 1019.94 1019.44 1019.08 1018.85 1018.67 1018.71 1017.96 1017.83 1017.81 1017.64 1017.50 1016.85 1016.65 1016.68 1016.74 1016.86 1016.21 1016.33 1015.41 1016.20 1016.09 1016.01 1015.84 1015.96 1016.05
1023.60 1023.31 1022.97 1022.78 1022.44 1022.35 1022.17 1021.73 1021.42 1021.16 1020.99 1021.09 1020.95 1020.71 1019.85 1020.66 1020.49 1020.23 1020.09 1020.45 1020.39 1019.78 1019.42 1019.60 1019.36 1019.06 1018.90 1018.47 1018.53 1018.08 1017.47 1016.71 1016.47 1016.55 1016.66 1017.04 1015.94 1015.68 1016.33 1016.56 1016.10 1016.16 1016.24 1016.37 1016.42
1023.53 1023.48 1022.84 1022.64 1022.56 1022.32 1022.06 1021.79 1021.72 1021.44 1021.12 1021.01 1021.06 1020.29 1020.29 1020.90 1020.56 1020.38 1020.18 1020.24 1020.50 1020.38 1019.91 1020.08 1019.78 1019.59 1019.35 1019.38 1018.72 1018.09 1017.43 1016.03 1015.93 1016.77 1016.75 1017.03 1015.20 1015.51 1016.70 1016.70 1016.31 1016.42 1016.55 1016.72 1016.85
1023.47 1023.20 1023.29 1022.57 1022.41 1022.37 1021.96 1021.65 1021.62 1021.45 1021.37 1021.16 1020.76 1020.14 1020.43 1020.92 1020.68 1020.57 1020.30 1020.24 1020.65 1020.64 1020.43 1020.23 1019.96 1019.72 1019.72 1018.97 1018.08 1017.67 1016.47 1015.81 1015.74 1016.68 1016.91 1016.86 1015.37 1015.52 1016.58 1016.86 1016.62 1016.70 1016.95 1017.25 1017.28
1023.42 1023.07 1022.87 1022.91 1022.42 1022.14 1022.01 1021.74 1021.48 1021.49 1021.23 1020.94 1020.76 1020.63 1021.13 1020.84 1021.07 1020.92 1020.70 1020.68 1020.57 1020.57 1020.40 1020.06 1019.78 1019.60 1019.15 1018.74 1017.32 1016.76 1016.74 1016.34 1016.43 1016.67 1016.98 1016.55 1015.66 1015.36 1015.72 1017.14 1016.95 1017.19 1017.48 1017.62 1018.00
1023.23 1023.13 1022.88 1022.70 1022.39 1022.29 1021.93 1021.68 1021.67 1021.36 1020.86 1021.22 1021.26 1020.99 1021.23 1021.45 1021.41 1021.16 1021.08 1020.72 1020.72 1020.64 1020.05 1020.27 1019.75 1018.90 1018.25 1018.33 1018.47 1018.31 1017.79 1017.09 1016.65 1016.89 1017.46 1016.39 1015.44 1015.16 1015.38 1016.77 1017.02 1017.48 1017.94 1018.20 1018.44
1023.00 1022.93 1022.72 1022.75 1022.28 1022.17 1021.73 1021.20 1022.01 1022.29 1021.79 1021.63 1021.44 1021.34 1021.47 1021.47 1021.29 1021.36 1021.37 1021.04 1020.76 1020.28 1020.59 1020.51 1019.54 1019.17 1019.66 1019.63 1019.43 1018.91 1018.21 1017.42 1017.03 1017.27 1017.83 1016.49 1015.22 1014.94 1014.91 1016.23 1017.24 1017.95 1018.47 1018.90 1019.10
1023.07 1022.91 1022.74 1022.63 1022.28 1021.93 1021.77 1022.45 1022.75 1022.27 1021.39 1021.94 1021.70 1021.43 1021.54 1021.64 1021.21 1021.34 1021.63 1021.20 1020.97 1020.61 1020.60 1020.19 1020.02 1020.33 1020.31 1020.11 1019.98 1019.39 1018.87 1018.34 1017.99 1017.92 1017.59 1017.01 1015.03 1013.79 1014.11 1016.22 1017.73 1018.58 1019.11 1019.52 1019.75
1022.85 1022.86 1022.71 1022.55 1022.64 1022.22 1022.24 1022.91 1022.81 1022.69 1021.62 1022.10 1021.69 1021.98 1021.87 1021.58 1021.60 1021.89 1021.92 1021.77 1021.52 1021.12 1021.02 1020.62 1020.59 1020.84 1020.73 1020.48 1020.23 1019.59 1019.05 1019.08 1019.05 1018.89 1017.73 1017.80 1015.35 1014.12 1014.23 1016.23 1017.53 1018.45 1019.03 1019.71 1020.08
1022.97 1022.82 1022.71 1022.55 1022.23 1021.95 1022.73 1022.96 1022.85 1022.72 1022.45 1022.33 1022.00 1022.18 1022.01 1021.74 1021.84 1022.15 1022.38 1022.01 1021.56 1021.43 1021.94 1020.80 1021.04 1021.02 1020.78 1020.39 1020.36 1019.82 1019.92 1019.73 1019.66 1019.31 1018.51 1017.45 1017.27 1014.18 1014.78 1015.67 1016.85 1018.13 1019.19 1020.00 1020.56
1022.76 1022.80 1022.76 1022.48 1022.15 1022.91 1022.91 1023.02 1022.82 1022.74 1022.05 1022.23 1022.20 1021.91 1022.03 1022.00 1021.94 1022.18 1022.10 1022.25 1022.36 1022.01 1021.68 1021.28 1021.62 1021.38 1020.75 1020.86 1020.91 1020.89 1020.72 1020.41 1020.27 1019.97 1018.69 1017.28 1016.73 1014.79 1014.76 1015.78 1016.15 1018.00 1019.36 1020.21 1020.76
1022.77 1022.86 1022.74 1022.64 1022.55 1023.05 1023.01 1022.54 1022.83 1022.34 1022.59 1022.47 1022.13 1022.16 1022.05 1022.13 1022.31 1022.16 1022.11 1022.07 1021.91 1022.04 1021.34 1021.20 1021.06 1021.14 1021.44 1021.18 1021.24 1021.41 1021.12 1020.64 1020.22 1020.19 1018.41 1017.89 1017.16 1015.74 1015.99 1016.74 1017.11 1018.30 1019.52 1020.40 1020.89
1022.82 1022.95 1023.20 1023.01 1023.17 1023.15 1022.96 1022.08 1022.41 1021.59 1022.12 1022.41 1022.26 1022.40 1022.25 1022.40 1022.47 1022.50 1022.28 1021.96 1022.13 1022.38 1021.87 1021.07 1020.84 1021.48 1021.48 1021.33 1021.06 1021.21 1021.55 1021.31 1020.28 1019.68 1018.87 1018.83 1017.64 1016.29 1017.72 1018.03 1018.16 1018.89 1019.88 1020.60 1020.96
1022.83 1022.88 1022.97 1023.28 1023.29 1023.28 1022.62 1022.35 1021.15 1021.19 1021.74 1022.12 1022.71 1022.69 1022.95 1023.14 1023.08 1022.89 1022.59 1022.17 1022.54 1022.82 1022.61 1021.88 1021.64 1022.06 1022.23 1022.09 1022.07 1021.59 1021.74 1021.96 1021.73 1021.22 1020.83 1018.63 1017.34 1018.15 1018.38 1018.93 1019.41 1019.95 1020.43 1020.57 1020.98
1022.32 1022.52 1022.93 1023.56 1023.45 1023.07 1022.78 1021.84 1021.46 1021.35 1021.69 1021.89 1021.83 1022.30 1022.81 1023.52 1023.41 1023.18 1022.71 1022.91 1023.24 1023.65 1023.68 1023.22 1022.78 1022.47 1022.72 1022.75 1022.44 1022.36 1022.47 1022.47 1022.51 1021.42 1019.84 1018.11 1017.31 1017.22 1018.13 1018.89 1019.69 1020.05 1020.17 1020.46 1020.94
1022.22 1022.23 1023.60 1023.77 1023.65 1022.84 1022.73 1022.09 1021.81 1021.93 1022.06 1021.97 1021.92 1022.60 1023.12 1023.62 1023.72 1023.68 1023.30 1023.82 1023.89 1024.23 1024.23 1023.92 1023.86 1023.02 1023.12 1022.56 1022.13 1022.68 1022.80 1022.99 1022.68 1021.92 1020.36 1018.77 1017.10 1017.70 1018.03 1018.37 1019.13 1019.57 1019.82 1020.26 1020.93
1021.69 1022.62 1023.84 1023.81 1023.61 1023.39 1022.78 1022.36 1022.26 1022.45 1022.80 1022.54 1022.40 1022.76 1023.43 1023.99 1024.24 1024.30 1023.95 1024.16 1024.63 1024.66 1024.62 1024.47 1024.54 1023.69 1022.92 1022.95 1023.28 1023.27 1022.96 1023.00 1022.86 1021.59 1020.55 1019.82 1017.52 1018.30 1018.62 1018.95 1019.08 1019.36 1019.68 1020.13 1020.85
1021.32 1022.85 1023.87 1023.79 1023.16 1023.09 1023.08 1022.63 1022.51 1022.80 1022.91 1023.05 1023.05 1023.31 1024.30 1024.62 1025.12 1025.04 1024.98 1025.50 1025.39 1025.26 1025.30 1025.46 1025.39 1024.67 1023.14 1023.80 1023.76 1023.81 1023.22 1023.49 1023.39 1023.49 1021.58 1020.65 1018.34 1019.32 1019.72 1019.58 1019.60 1019.66 1019.96 1020.52 1021.20
1020.84 1022.45 1023.69 1023.64 1023.11 1022.29 1022.40 1022.48 1022.79 1023.07 1023.00 1023.27 1023.75 1024.18 1024.83 1025.38 1025.96 1025.95 1025.84 1026.14 1026.19 1026.08 1026.33 1026.30 1026.14 1025.51 1024.56 1023.72 1023.97 1024.21 1023.94 1024.01 1024.30 1023.66 1021.95 1020.73 1019.55 1019.71 1019.77 1019.95 1020.07 1020.20 1020.34 1020.87 1021.52
1019.90 1020.51 1021.36 1022.47 1022.35 1022.15 1021.86 1021.94 1022.36 1022.97 1023.26 1023.40 1023.99 1024.00 1024.52 1025.64 1026.36 1026.32 1026.27 1026.71 1026.88 1026.87 1027.00 1027.17 1026.83 1026.34 1025.58 1025.22 1025.16 1024.76 1024.49 1024.09 1023.94 1023.46 1023.33 1020.83 1020.66 1019.69 1020.02 1020.37 1020.66 1020.77 1020.77 1020.99 1021.50
1019.02 1020.01 1021.24 1021.49 1021.16 1021.85 1021.86 1021.86 1021.81 1022.49 1022.80 1023.16 1023.49 1023.49 1024.32 1024.87 1024.86 1025.42 1026.09 1026.69 1026.64 1027.64 1027.96 1028.12 1027.29 1027.24 1026.23 1026.10 1025.74 1024.91 1024.27 1024.03 1023.44 1022.97 1022.55 1021.69 1020.18 1020.20 1020.15 1020.16 1020.66 1021.23 1021.62 1021.78 1022.20
1018.28 1019.31 1019.12 1020.96 1021.02 1021.24 1020.63 1021.07 1021.24 1021.80 1022.95 1022.80 1023.03 1023.76 1024.63 1024.77 1025.19 1025.58 1026.10 1026.47 1026.91 1027.52 1028.03 1028.34 1028.07 1028.28 1026.74 1026.93 1026.43 1024.84 1023.34 1022.73 1022.36 1022.25 1022.51 1021.60 1019.99 1020.62 1020.49 1020.79 1021.15 1021.43 1021.99 1022.35 1022.65
Thickness
5616 5618 5618 5621 5623 5626 5629 5631 5632 5633 5635 5635 5635 5635 5635 5634 5637 5642 5636 5629 5630 5628 5626 5629 5629 5629 5631 5625 5625 5626 5622 5621 5616 5611 5614 5614 5606 5616 5616 5610 5615 5619 5616 5619 5622
5614 5614 5618 5620 5622 5621 5624 5626 5629 5631 5632 5632 5631 5630 5631 5630 5636 5632 5623 5623 5622 5623 5627 5624 5622 5623 5626 5618 5617 5618 5616 5614 5611 5611 5606 5608 5605 5603 5601 5606 5609 5612 5615 5616 5615
5614 5614 5613 5615 5617 5619 5622 5625 5625 5626 5628 5629 5629 5628 5628 5627 5633 5621 5615 5615 5617 5617 5618 5616 5616 5617 5614 5614 5609 5608 5611 5606 5609 5606 5600 5598 5598 5602 5597 5595 5601 5592 5595 5598 5602
5605 5609 5609 5612 5615 5616 5618 5620 5622 5623 5623 5625 5625 5624 5625 5629 5631 5618 5611 5608 5606 5610 5613 5609 5606 5607 5605 5602 5601 5597 5599 5598 5598 5595 5589 5590 5596 5591 5596 5597 5590 5592 5591 5590 5591
5602 5603 5605 5608 5610 5613 5614 5615 5618 5619 5621 5621 5619 5617 5622 5629 5617 5612 5607 5604 5603 5603 5603 5603 5597 5598 5600 5598 5596 5593 5599 5593 5592 5589 5586 5586 5584 5587 5591 5594 5585 5588 5585 5581 5578
5596 5600 5601 5605 5607 5607 5610 5612 5613 5615 5615 5615 5612 5611 5618 5622 5606 5604 5600 5597 5596 5597 5596 5596 5593 5589 5592 5590 5586 5586 5583 5588 5589 5586 5584 5576 5582 5578 5591 5579 5578 5578 5579 5576 5572
5591 5593 5596 5598 5602 5603 5604 5607 5609 5610 5610 5608 5607 5607 5614 5603 5600 5599 5596 5589 5586 5589 5588 5585 5584 5581 5580 5579 5577 5577 5575 5586 5586 5582 5579 5572 5577 5578 5574 5571 5573 5571 5570 5566 5565
5585 5586 5592 5594 5595 5598 5600 5601 5601 5603 5603 5603 5601 5605 5600 5592 5591 5591 5588 5585 5579 5577 5580 5576 5577 5573 5571 5568 5571 5570 5572 5579 5586 5573 5574 5566 5578 5580 5565 5564 5566 5564 5562 5558 5555
5580 5583 5582 5590 5591 5591 5594 5596 5595 5595 5594 5594 5597 5600 5593 5586 5585 5583 5582 5578 5571 5569 5569 5570 5569 5566 5563 5565 5571 5570 5576 5580 5578 5569 5563 5560 5571 5572 5561 5557 5559 5557 5554 5548 5547
5573 5578 5580 5580 5584 5586 5587 5588 5590 5588 5587 5587 5588 5590 5580 5580 5574 5572 5571 5569 5566 5563 5563 5564 5564 5562 5563 5563 5570 5575 5568 5570 5562 5563 5556 5556 5562 5569 5566 5546 5550 5548 5544 5542 5536
5568 5570 5572 5573 5577 5577 5580 5583 5587 5588 5586 5579 5577 5576 5571 5567 5564 5563 5561 5563 5560 5557 5560 5554 5557 5563 5572 5566 5559 5552 5551 5555 5562 5558 5540 5551 5560 5563 5563 5544 5544 5541 5535 5532 5528
5563 5564 5566 5565 5570 5571 5574 5583 5573 5572 5576 5569 5567 5566 5562 5559 5558 5554 5553 5554 5552 5555 5547 5547 5554 5558 5546 5542 5539 5541 5542 5548 5553 5548 5532 5544 5554 5560 5560 5546 5536 5529 5525 5520 5517
5553 5556 5558 5559 5563 5566 5568 5562 5556 5559 5577 5558 5558 5559 5555 5552 5552 5548 5544 5545 5544 5544 5542 5545 5547 5536 5534 5533 5528 5532 5531 5535 5535 5534 5532 5531 5547 5563 5564 5538 5522 5514 5509 5507 5503
5546 5547 5550 5552 5554 5555 5556 5548 5548 5545 5571 5556 5551 5546 5544 5544 5542 5536 5533 5535 5532 5534 5532 5535 5533 5524 5524 5522 5524 5522 5533 5524 5518 5514 5519 5519 5524 5554 5556 5529 5516 5508 5504 5498 5493
5535 5539 5542 5544 5547 5553 5543 5538 5537 5538 5559 5543 5539 5534 5533 5536 5532 5527 5522 5523 5526 5526 5517 5530 5519 5516 5515 5519 5516 5519 5511 5509 5507 5504 5507 5520 5497 5547 5542 5530 5519 5505 5494 5486 5480
5528 5530 5533 5536 5538 5532 5530 5527 5530 5541 5556 5522 5529 5528 5526 5523 5521 5518 5518 5514 5509 5511 5511 5512 5505 5506 5510 5506 5501 5498 5496 5494 5492 5490 5483 5515 5508 5526 5537 5522 5522 5500 5483 5474 5469
5519 5520 5522 5523 5529 5520 5518 5525 5530 5538 5512 5513 5520 5517 5522 5516 5510 5510 5510 5507 5510 5501 5511 5508 5505 5502 5493 5493 5490 5482 5485 5479 5479 5461 5481 5492 5494 5511 5513 5503 5499 5485 5471 5462 5458
5507 5509 5509 5510 5508 5507 5508 5527 5526 5517 5510 5502 5508 5507 5512 5507 5506 5499 5502 5504 5498 5488 5495 5504 5505 5487 5486 5485 5486 5480 5473 5470 5467 5484 5486 5463 5466 5505 5469 5473 5478 5470 5457 5447 5445
5497 5498 5499 5496 5496 5495 5509 5504 5532 5520 5501 5499 5490 5491 5491 5486 5489 5488 5493 5499 5487 5479 5485 5491 5490 5471 5466 5466 5466 5466 5454 5459 5442 5442 5414 5468 5482 5451 5449 5446 5445 5440 5435 5437 5433
5489 5491 5490 5483 5483 5487 5483 5512 5500 5503 5496 5496 5509 5493 5493 5467 5479 5480 5488 5477 5469 5455 5453 5462 5461 5459 5455 5449 5452 5447 5444 5434 5428 5417 5431 5464 5471 5469 5442 5438 5429 5426 5427 5426 5422
5475 5484 5470 5468 5468 5484 5484 5491 5484 5482 5482 5490 5488 5465 5479 5461 5469 5464 5473 5453 5451 5441 5442 5445 5439 5453 5443 5445 5452 5434 5422 5417 5423 5427 5423 5427 5452 5450 5443 5440 5424 5421 5421 5417 5410
5468 5465 5454 5453 5462 5451 5469 5466 5471 5465 5460 5467 5474 5471 5464 5451 5448 5456 5463 5452 5437 5435 5430 5433 5421 5428 5442 5432 5416 5411 5416 5417 5402 5414 5429 5413 5429 5430 5423 5419 5422 5413 5410 5407 5399
5457 5446 5439 5440 5457 5450 5441 5454 5459 5451 5452 5455 5457 5456 5439 5435 5444 5435 5438 5421 5420 5420 5410 5408 5404 5408 5428 5412 5404 5392 5405 5395 5389 5360 5385 5386 5415 5401 5393 5394 5397 5398 5393 5386 5381
5445 5435 5425 5430 5434 5450 5444 5446 5441 5439 5445 5444 5438 5434 5424 5413 5403 5410 5416 5407 5402 5404 5393 5392 5390 5397 5409 5418 5402 5380 5385 5381 5359 5354 5379 5385 5391 5399 5391 5379 5378 5377 5377 5371 5364
5439 5445 5435 5425 5428 5433 5442 5443 5436 5428 5430 5433 5424 5433 5426 5402 5388 5391 5400 5391 5388 5385 5381 5376 5369 5370 5373 5376 5367 5363 5359 5364 5350 5346 5334 5370 5358 5374 5371 5360 5352 5354 5360 5358 5354
5433 5431 5419 5418 5430 5428 5430 5428 5433 5422 5427 5425 5422 5432 5418 5409 5417 5397 5384 5379 5388 5368 5361 5353 5366 5345 5340 5354 5347 5336 5347 5346 5347 5339 5334 5341 5346 5365 5359 5356 5343 5333 5328 5333 5328
5431 5425 5438 5415 5418 5423 5439 5428 5431 5426 5416 5425 5422 5418 5405 5402 5396 5391 5386 5381 5374 5359 5349 5343 5346 5318 5341 5318 5310 5314 5343 5349 5342 5338 5319 5314 5339 5336 5329 5326 5321 5320 5315 5313 5311